軌道要素
Epoch 2021 May 26.0 TT = JDT 2459360.5
T 2021 May 26.67498 TT MPCW
q 1.2173732 (2000.0) P Q
n 0.16049466 Peri. 41.54360 +0.48146294 -0.87581492
a 3.3534794 Node 19.74881 +0.77545787 +0.40769310
e 0.6369821 Incl. 5.73896 +0.40848321 +0.25833033
P 6.14
From 862 observations 2001 Aug. 9-2015 Mar. 20, mean residual 0".7.
Nongravitational parameters A1 = +0.09, A2 = -0.0069.
|